El Hierro > ESTACION METEOROLÓGICA Punto Limpio Frontera

DATOS ACTUALES Online

Ultima actulizacion 26 minutos

21.3 ºC

Temperatura

70

Humedad (%)

1016

Presión (mb)

0

Precipitación (mm)

17.3 SW

Viento (Km/h)

DATOS DIARIOS

Temperatura últimas 24 horas (ºC)

Humedad últimas 24 horas (%)

Presión atmosférica últimas 24 horas (mb)

Precipitaciones últimas 23 horas (mm)

Viento últimas 24 horas (Km/h)

Hora Temperatura (°C) ºC Precipitación (mm) mm Presión (mb) mb Humedad (%) % Viento (Km/h) km/h
28 - 10:00 21.4 0 1015 68 22.7 S
28 - 11:00 21.8 0 1015 71 23 SW
28 - 12:00 21.9 0 1015 63 27 S
28 - 13:00 23.8 0 1015 59 26.6 SW
28 - 14:00 23.6 0 1015 60 29.5 S
28 - 15:00 23.2 0 1015 63 27.7 S
28 - 16:00 24.1 0 1015 59 22.3 S
28 - 17:00 24 0 1015 55 20.9 S
28 - 18:00 23.6 0 1015 58 28.1 S
28 - 19:00 23 0 1015 65 26.3 S
28 - 20:00 22.2 0 1015 67 26.3 SW
28 - 21:00 21.6 0 1016 68 24.8 SW
28 - 22:00 21.6 0 1016 70 15.5 SW
28 - 23:00 21.6 0 1016 67 21.6 S
29 - 00:00 21.4 0 1016 68 15.8 SO
29 - 01:00 21.3 0 1016 68 15.1 S
29 - 02:00 21.2 0 1015 68 11.5 S
29 - 03:00 21.2 0 1015 68 13 SW
29 - 04:00 21.3 0 1014 74 18 S
29 - 05:00 20.9 0 1015 68 7.9 SW
29 - 06:00 21.1 0 1015 69 23.8 S
29 - 07:00 20.8 0 1015 68 10.4 SW
29 - 08:00 20.8 0 1015 71 24.1 S
29 - 09:00 20.8 0 1016 73 16.6 S
29 - 10:00 21.3 0 1016 70 17.3 SW
Apalmet utiliza cookies propias y de terceros para mejorar la usabilidad y la experiencia web. Política de cookies.